To NAV CANADA Home Page Login to a new session Search on AWWS site Feedback and Comments Disclaimer Vers la page française équivalente Tips FAQ What's new on the site To the Forecasts and Observations / NOTAM section To "File a Flight Plan" website Publications and other links Update of the User's profile FIC Telephone Numbers My Weather Data Folder Route Weather Data Regional Weather Data Local Weather Data To the Forecasts and Observations / NOTAM section
Request Generated 04/30/2017 at 04:59:46 UTC . Weather information available at that time is displayed.

METAR/TAF

WHALE COVE/NU    

LWIS CYXN 300400Z AUTO 17002KT M13/M16 A3020=
LWIS CYXN 300300Z AUTO 21004KT M12/M16 A3021=
LWIS CYXN 300200Z AUTO 21003KT M12/M16 A3023=

CYXN - No TAF is issued for this station

Your time UTC time
Weather data provided by Environment Canada and NAV CANADA